Home   Weather   Corpus Christi   Past weeks
Flag for USA

Past Weather in Corpus Christi, Texas, USA — Yesterday and Last 2 Weeks

Now
70 °F

Overcast.


Feels Like: 67 °F
Forecast: 82 / 70 °F
Wind: 7 mph from East

Location: Corpus Christi International Airport

Current Time: Apr 6, 2020 at 4:59:42 am

Latest Report: Apr 6, 2020 at 3:51 am


Visibility: 10 mi

Pressure: 29.94 "Hg

Humidity: 90%

Dew Point: 67 °F

Location of Corpus ChristiLocation

Past Weather in Corpus Christi — Graph

°F

Corpus Christi Temperature Yesterday

Maximum temperature yesterday: 72 °F (at 4:51 pm)
Minimum temperature yesterday: 56 °F (at 3:09 am)
Average temperature yesterday: 64 °F

High & Low Weather Summary for the Past Weeks

 TemperatureHumidityPressure
High92 °F (Mar 27, 2:51 pm)100% (Mar 22, 2:51 am)30.10 "Hg (Mar 22, 2:51 am)
Low56 °F (Apr 4, 10:38 am)23% (Mar 31, 11:51 am)29.66 "Hg (Mar 27, 5:51 pm)
Average74 °F80%29.90 "Hg
* Reported Mar 22 2:51 am — Apr 6 2:51 am, Corpus Christi. Weather by CustomWeather, © 2020

Note: Actual official high and low records may vary slightly from our data, if they occured in-between our weather recording intervals... More about our weather records

Corpus Christi Weather History for the Previous 24 Hours

Scroll right to see more
 ConditionsComfort  
Time TempWeatherWind HumidityBarometerVisibility
2:51 am
Mon, Apr 6
70 °FOvercast.8 mph90%29.94 "Hg10 mi
2:17 am70 °FOvercast.10 mph87%29.94 "Hg10 mi
1:51 am69 °FOvercast.12 mph90%29.94 "Hg10 mi
1:35 am69 °FMostly cloudy.10 mph90%29.96 "Hg10 mi
12:51 am69 °FMostly cloudy.13 mph87%29.96 "Hg10 mi
12:40 am69 °FMostly cloudy.13 mph87%29.97 "Hg10 mi
11:51 pm
Sun, Apr 5
69 °FOvercast.10 mph87%29.98 "Hg10 mi
10:51 pm68 °FPartly cloudy.10 mph90%29.98 "Hg10 mi
9:51 pm68 °FPassing clouds.12 mph87%29.97 "Hg10 mi
8:51 pm69 °FPassing clouds.14 mph84%29.96 "Hg10 mi
7:51 pm69 °FPassing clouds.13 mph84%29.96 "Hg10 mi
6:51 pm71 °FMostly cloudy.14 mph78%29.96 "Hg10 mi
5:51 pm72 °FCloudy.13 mph78%29.97 "Hg10 mi
4:51 pm72 °FCloudy.13 mph76%29.98 "Hg10 mi
4:09 pm71 °FMostly cloudy.12 mph78%29.98 "Hg8 mi
3:51 pm71 °FBroken clouds.9 mph78%29.98 "Hg8 mi
3:33 pm70 °FCloudy.8 mph79%29.99 "Hg8 mi
2:51 pm68 °FOvercast.5 mph82%30.01 "Hg8 mi
1:51 pm67 °FOvercast.7 mph81%30.02 "Hg9 mi
12:51 pm65 °FOvercast.5 mph85%30.03 "Hg8 mi
11:51 am64 °FLow clouds.9 mph87%30.03 "Hg8 mi
10:51 am63 °FLow clouds.7 mph87%30.03 "Hg9 mi
9:51 am62 °FLow clouds.9 mph86%30.01 "Hg9 mi
9:41 am62 °FMostly cloudy.13 mph86%30.00 "Hg9 mi
9:01 am60 °FBroken clouds.22 mph90%29.97 "Hg8 mi
7:51 am58 °FMostly cloudy.15 mph93%29.98 "Hg8 mi
6:51 am57 °FLow clouds.13 mph93%29.96 "Hg7 mi
6:22 am56 °FFog.12 mph97%29.97 "Hg6 mi
5:51 am56 °FFog.15 mph97%29.96 "Hg6 mi
5:08 am56 °FFog.15 mph97%29.97 "Hg6 mi
4:51 am56 °FFog.12 mph93%29.96 "Hg6 mi
Weather by CustomWeather, © 2020

See weather overview

Advertising